Regional Weather Roundup
Issued by NWS

Home | Current Version | Previous Version | Text Only | Print | Product List | Glossary On
Versions: 1 2 3 4 5 6 7 8 9 10 11 12 13 14 15 16 17 18 19 20 21 22 23 24 25 26 27 28 29 30 31 32 33 34 35 36 37 38 39 40 41 42 43 44 45 46 47 48 49 50
827
ASUS46 KSEW 290610
RWRWA

WASHINGTON REGIONAL WEATHER ROUNDUP
NATIONAL WEATHER SERVICE SEATTLE WA
1100 PM PDT TUE MAR 28 2017

NOTE:"FAIR" INDICATES FEW OR NO CLOUDS BELOW 12,000 FEET WITH NO
SIGNIFICANT WEATHER AND/OR OBSTRUCTIONS TO VISIBILITY.

WAZ507-509-555>559-290700-
SEATTLE, TACOMA, EVERETT, AND VICINITY

CITY           SKY/WX    TMP DP  RH WIND       PRES   REMARKS
EVERETT        CLOUDY    50  40  68 SE16G26   30.13F
6HR MIN TEMP:  49; 6HR MAX TEMP:  51;

BOEING FIELD   CLOUDY    51  42  71 S13G22    30.16F
6HR MIN TEMP:  50; 6HR MAX TEMP:  54; 6HR PCP: TRACE;

RENTON         LGT RAIN  50  45  83 SE3       30.15F
6HR MIN TEMP:  50; 6HR MAX TEMP:  54; 6HR PCP: TRACE;

SEATAC AIRPORT LGT RAIN  49  43  80 S9        30.16F
6HR MIN TEMP:  49; 6HR MAX TEMP:  53; 6HR PCP: TRACE;

JBLM-MCCHORD   LGT RAIN  47  43  85 S8        30.15F
6HR MIN TEMP:  47; 6HR MAX TEMP:  51; 6HR PCP:  0.03;

PUYALLUP       DRIZZLE   48  45  87 S3        30.15F
BREMERTON      CLOUDY    45  43  93 S7        30.17F
6HR MIN TEMP:  45; 6HR MAX TEMP:  46; 6HR PCP:  0.30;

JBLM-FT LEWIS  LGT RAIN  48  44  86 S14G20    30.15S
6HR MIN TEMP:  48; 6HR MAX TEMP:  52; 6HR PCP:  0.01;

TACOMA NARROWS LGT RAIN  47  40  76 S20G28    30.15F
6HR MIN TEMP:  47; 6HR MAX TEMP:  49; 6HR PCP:  0.15;

$$

WAZ001-503-506-510-514-515-290700-
NORTH INTERIOR

CITY           SKY/WX    TMP DP  RH WIND       PRES   REMARKS
BELLINGHAM     LGT RAIN  48  45  89 SE10      30.10F
6HR MIN TEMP:  48; 6HR MAX TEMP:  50; 6HR PCP:  0.15;

FRIDAY HARBOR  LGT RAIN  48  46  93 E12       30.09F
6HR MIN TEMP:  48; 6HR MAX TEMP:  51; 6HR PCP: TRACE;

EASTSOUND      LGT RAIN  48  46  93 S6        30.07F
PORT ANGELES   CLOUDY    46  45  96 CALM      30.06F
6HR MIN TEMP:  46; 6HR MAX TEMP:  50;

EDIZ HOOK      CLOUDY    47  45  93 CALM      30.05F
6HR MIN TEMP:  47; 6HR MAX TEMP:  49;

PORT TOWNSEND  CLOUDY    50  45  81 VRB7      30.08F
NAS WHIDBEY    LGT RAIN  51  42  71 SE21      30.12F
6HR MIN TEMP:  51; 6HR MAX TEMP:  53; 6HR PCP:  0.02;

ARLINGTON      CLOUDY    48  39  71 SE14      30.16F
6HR MIN TEMP:  46; 6HR MAX TEMP:  52;

BURLINGTON     CLOUDY    48  45  87 SE13      30.12F
$$

WAZ020-022-039-040-504-511-512-290700-
SOUTHWEST INTERIOR

CITY           SKY/WX    TMP DP  RH WIND       PRES   REMARKS
SHELTON        LGT RAIN  47  45  93 CALM      30.12F
6HR MIN TEMP:  47; 6HR MAX TEMP:  50; 6HR PCP:  0.42;

OLYMPIA        LGT RAIN  46  40  79 S14G24    30.15F
6HR MIN TEMP:  46; 6HR MAX TEMP:  50; 6HR PCP:  0.04;

CHEHALIS       LGT RAIN  46  41  81 S12       30.17F
KELSO          RAIN      47  41  80 SE8       30.21F
6HR MIN TEMP:  47; 6HR MAX TEMP:  55; 6HR PCP:  0.06;

VANCOUVER      LGT RAIN  51  42  71 CALM      30.22F
6HR MIN TEMP:  51; 6HR MAX TEMP:  59; 6HR PCP:  0.01;

SCAPPOOSE, OR  LGT RAIN  49  41  74 CALM      30.21F
6HR MIN TEMP:  49; 6HR MAX TEMP:  58; 6HR PCP:  0.01;

PORTLAND, OR   LGT RAIN  50  41  71 SE6       30.23F
6HR MIN TEMP:  50; 6HR MAX TEMP:  58; 6HR PCP:  0.01;

$$

WAZ021-516-517-290700-
WASHINGTON COAST

CITY           SKY/WX    TMP DP  RH WIND       PRES   REMARKS
FORKS          RAIN      49  49 100 VRB6      30.03F FOG
6HR MIN TEMP:  49; 6HR MAX TEMP:  49; 6HR PCP:  0.98;

HOQUIAM        LGT RAIN  49  46  90 SE22G33   30.10F
6HR MIN TEMP:  49; 6HR MAX TEMP:  50; 6HR PCP:  0.23;

ASTORIA, OR    LGT RAIN  47  39  74 S8        30.13F
6HR MIN TEMP:  47; 6HR MAX TEMP:  52; 6HR PCP:  0.06;

$$

WAZ019-023-024-040-567>569-290700-
CASCADE MOUNTAINS AND COLUMBIA GORGE

CITY           SKY/WX    TMP DP  RH WIND       PRES   REMARKS
STAMPEDE PASS  NOT AVBL
TROUTDALE, OR  LGT RAIN  51  45  79 CALM      30.23F
6HR MIN TEMP:  51; 6HR MAX TEMP:  60; 6HR PCP:  0.02;

THE DALLES, OR CLOUDY    51  44  77 NW7       30.20F
6HR MIN TEMP:  51; 6HR MAX TEMP:  58;

$$

WAZ026-027-041>044-520-521-290700-
EAST SLOPES

CITY           SKY/WX    TMP DP  RH WIND       PRES   REMARKS
OMAK           CLOUDY    49  35  58 S9        30.12S
6HR MIN TEMP:  47; 6HR MAX TEMP:  54;

WENATCHEE      CLOUDY    47  37  68 N7        30.13F
6HR MIN TEMP:  47; 6HR MAX TEMP:  54;

ELLENSBURG     CLOUDY    45  38  76 S6        30.15S
6HR MIN TEMP:  45; 6HR MAX TEMP:  52;

YAKIMA         CLOUDY    48  38  68 NW5       30.15F
6HR MIN TEMP:  47; 6HR MAX TEMP:  60;

SUNNYSIDE ARPT CLOUDY    47  38  70 NE5       30.18F
6HR MIN TEMP:  47; 6HR MAX TEMP:  56;

$$

WAZ028-034-035-290700-
COLUMBIA BASIN

CITY           SKY/WX    TMP DP  RH WIND       PRES   REMARKS
EPHRATA        CLOUDY    48  36  63 SW5       30.13F
6HR MIN TEMP:  47; 6HR MAX TEMP:  55;

MOSES LAKE     CLOUDY    50  36  58 S13       30.15F
6HR MIN TEMP:  48; 6HR MAX TEMP:  55;

PASCO            N/A    N/A N/A N/A MISG      30.20F
HERMISTON, OR  CLOUDY    50  44  80 S6        30.20F
6HR MIN TEMP:  50; 6HR MAX TEMP:  57;

$$

WAZ036>038-290700-
NORTHEAST WASHINGTON

CITY           SKY/WX    TMP DP  RH WIND       PRES   REMARKS
SPOKANE GEIGER MOCLDY    41  37  86 S10       30.18F
6HR MIN TEMP:  41; 6HR MAX TEMP:  44; 6HR PCP:  0.01;

SPOKANE FELTS  MOCLDY    44  37  76 CALM      30.20F
6HR MIN TEMP:  44; 6HR MAX TEMP:  46; 6HR PCP:  0.01;

FAIRCHILD AFB  MOCLDY    39  39 100 S9        30.17S
6HR MIN TEMP:  39; 6HR MAX TEMP:  43; 6HR PCP: TRACE;

COEURDALENE,ID CLOUDY    41  39  93 SE8       30.20F
6HR MIN TEMP:  41; 6HR MAX TEMP:  42; 6HR PCP:  0.05;

DEER PARK      CLOUDY    42  39  89 S6        30.19S
6HR MIN TEMP:  41; 6HR MAX TEMP:  43; 6HR PCP:  0.03;

$$

WAZ029>033-290700-
SOUTHEAST WASHINGTON

CITY           SKY/WX    TMP DP  RH WIND       PRES   REMARKS
PULLMAN        CLOUDY    41  38  89 E12       30.22F
6HR MIN TEMP:  40; 6HR MAX TEMP:  44; 6HR PCP:  0.05;

LEWISTON, ID   CLOUDY    46  40  79 NE7       30.23F
6HR MIN TEMP:  45; 6HR MAX TEMP:  52; 6HR PCP:  0.01;

WALLA WALLA    CLOUDY    53  39  59 S8        30.20F
6HR MIN TEMP:  50; 6HR MAX TEMP:  54; 6HR PCP: TRACE;

PENDLETON, OR  CLOUDY    47  41  80 E6        30.20F
6HR MIN TEMP:  47; 6HR MAX TEMP:  52; 6HR PCP: TRACE;

$$




USA.gov is the U.S. government's official web portal to all federal, state and local government web resources and services.